Powrót do katalogu

LEMUR 2 HUBBLE-5

AktywnyNaukaSSO
NORAD 64840·PAYLOAD·🇺🇸 United States

Wystrzelony Jun 23, 2025 z Vandenberg Space Force Base

Loading…

Następne Przeloty (najbliższe 24 godziny)

TLE

ŚwieżeSource: Space-Track

Epoka: Sep 14, 2026, 18:08 UTC

1 64840U 25135BT  26257.75591462  .00000953  00000-0  93865-4 0  9991
2 64840  97.7789  11.4039 0006544  51.0319 309.1484 14.94362660 67280

Śledź LEMUR 2 HUBBLE-5 w czasie rzeczywistym z AllMySat

Download on the App Store